Home   Weather   Torrevieja   Past weeks

Flag for Spain Past Weather in Torrevieja, Spain — Yesterday and Last 2 Weeks

Now
61 °F

Passing clouds.


Feels Like: 61 °F
Forecast: 58 / 64 °F
Wind: 15 mph from Northeast

Location: Murcia / San Javier

Current Time: Dec 8, 2016 at 9:25:57 pm

Latest Report: Dec 8, 2016 at 8:00 pm


Visibility: N/A

Pressure: 30.48 "Hg

Humidity: 83%

Dew Point: 55 °F

Location of TorreviejaLocation

Past Weather in Torrevieja — Graph

°F

Torrevieja Temperature Yesterday

Maximum temperature yesterday: 64 °F (at 12:00 pm)
Minimum temperature yesterday: 50 °F (at 7:00 am)
Average temperature yesterday: 60 °F

High & Low Weather Summary for the Past Weeks

 TemperatureHumidityPressure
High66 °F (Nov 26, 12:00 pm)100% (Nov 27, 7:00 am)30.48 "Hg (Nov 27, 7:00 am)
Low39 °F (Nov 25, 7:00 am)48% (Nov 24, 3:00 pm)29.68 "Hg (Nov 26, 4:30 pm)
Average59 °F83%30.05 "Hg
* Reported Nov 23 8:00 pm — Dec 8 8:00 pm, Torrevieja, Weather by CustomWeather, © 2016

Note: Actual official high and low records may vary slightly from our data, if they occured in-between our weather recording intervals... More about our weather records

Advertising

Torrevieja Weather History for the Previous 24 Hours

Scroll right to see more
 ConditionsComfort  
Time TempWeatherWind HumidityBarometerVisibility
8:00 pm
Thu, Dec 8
61 °FPassing clouds.15 mph83%30.48 "HgN/A
7:00 pm61 °FPassing clouds.15 mph88%30.48 "HgN/A
6:00 pm61 °FPassing clouds.16 mph88%30.45 "HgN/A
5:00 pm63 °FPassing clouds.13 mph83%30.45 "HgN/A
4:00 pm64 °FPassing clouds.14 mph73%30.45 "HgN/A
3:00 pm64 °FPassing clouds.14 mph73%30.45 "HgN/A
2:00 pm64 °FPassing clouds.16 mph73%30.45 "HgN/A
1:00 pm64 °FScattered clouds.17 mph78%30.45 "HgN/A
12:00 pm63 °FPassing clouds.13 mph73%30.48 "HgN/A
11:00 am61 °FPassing clouds.9 mph72%30.48 "HgN/A
10:00 am59 °FPassing clouds.7 mph72%30.48 "HgN/A
9:00 am55 °FPassing clouds.8 mph77%30.48 "HgN/A
8:00 am50 °FPassing clouds.6 mph88%30.45 "HgN/A
7:00 am50 °FPassing clouds.8 mph88%30.45 "HgN/A
10:00 pm
Wed, Dec 7
61 °FPassing clouds.14 mph77%30.45 "HgN/A
9:00 pm61 °FPassing clouds.14 mph77%30.45 "HgN/A
Weather by CustomWeather, © 2016

See weather overviewHow to use our weather pages